Weather in Mamashir

Russia / Republic of Tatarstan     56°22′03″N   50°51′00″E
temp.,
°C
wind,
m/s
gust,
m/s
humid.,
%
clouds,
%
prec.,
mm/h
press.,
hPa
HPBL,
m
10 april, sat
sat1000:00−1n1199100 0.0 102911
03:00−1nne1199100 0.0 103023
06:00−1ne24100100 0.0 1030116
09:00+2ne37100100 0.0 1031375
12:00+1ne38100100 0.9 1030318
15:00+2ne49100100 1.9 1028315
18:00+1wnw11100100 1.0 102812
21:00+1ene25100100 1.9 1026121
11 april, sun
sun1100:00+1n11100100 1.3 102612
03:00+1nw2399100 8.4 102653
06:00+1n11100100 2.8 102727
09:00+3n23100100 3.0 102897
12:00+2nnw25100100 3.0 1030124
15:00+2n25100100 4.8 1031119
18:00+2n2299100 0.6 103331
21:00+3nne2297100 1.1 103423
12 april, mon
mon1200:00+2ne3494100 0.9 103557
03:00+2ne3693100 0.9 1036119
06:00+2ne3788100 0.1 1037167
09:00+3ne3786100 0.1 1038180
12:00+4ene3882100 0.0 1038260
15:00+5e3785100 0.0 1037175
18:00+5e3790100 0.0 1036134
21:00+4e3789100 0.0 1036128
13 april, tue
tue1300:00+4ese349298 0.0 103656
03:00+5se229454 0.0 103525
06:00+5se2293100 0.0 103423
09:00+11sse357750 0.0 1033274
12:00+15s455812 0.0 1032768
15:00+16ssw46495 0.0 1031983
18:00+12s346050 0.0 103046
21:00+9s346769 0.0 103056
14 april, wed
wed1400:00+7ssw337170 0.0 102941
03:00+6ssw337682 0.0 102941
06:00+6ssw36770 0.0 1028110
09:00+13ssw47590 0.0 1027378
12:00+16sw564638 0.0 1026921
15:00+17sw554264 0.0 10251114
18:00+13ssw346076 0.0 102447
21:00+10ssw336972 0.0 102334